Regional Weather Roundup
Issued by NWS Albany, NY

Home | Current Version | Previous Version | Graphics & Text | Print | Product List | Glossary Off
Versions: 1 2 3 4 5 6 7 8 9 10 11 12 13 14 15 16 17 18 19 20 21 22 23 24 25 26 27

000
ASUS41 KALY 251710
RWRALY

NEW YORK STATE HOURLY WEATHER ROUNDUP
NATIONAL WEATHER SERVICE ALBANY NY
100 PM EDT SUN JUN 25 2017

NOTE: "FAIR" INDICATES FEW OR NO CLOUDS BELOW 12,000 FEET WITH NO
SIGNIFICANT WEATHER AND/OR NO OBSTRUCTIONS TO VISIBILITY.

NYZ032-033-038>043-046>054-057>066-NYZ062>081-082-084-251800-
EAST


CITY           SKY/WX    TMP DP  RH WIND       PRES   REMARKS
ALBANY         PTSUNNY   78  55  44 W10       29.94F
GLENS FALLS    NOT AVBL
POUGHKEEPSIE   MOSUNNY   80  54  40 SW8       29.94F
NEWBURGH       PTSUNNY   77  57  50 W14       29.97F
MONTGOMERY     PTSUNNY   78  57  48 SW7       29.96F
WHITE PLAINS   MOSUNNY   81  52  36 SW8       29.97F
ISLIP          PTSUNNY   80  59  48 S14       29.97F
NEW YORK CITY  PTSUNNY   83  56  39 SW10      29.96F
CENTRAL PARK   MOSUNNY   79  56  45 VRB5      29.99F
$$

NYZ005>009-017-018-044>046-055-056-251800-
CENTRAL


CITY           SKY/WX    TMP DP  RH WIND       PRES   REMARKS
FULTON         PTSUNNY   75  54  47 W16G22    29.95F
SYRACUSE       CLOUDY    70  51  51 SW9       29.95S
ROME           PTSUNNY   71  54  54 W10       29.95F
ELMIRA         PTSUNNY   73  52  46 W12       29.97F
BINGHAMTON     MOSUNNY   72  50  46 W15G23    29.99
MONTICELLO     PTSUNNY   66  57  72 W7G16     30.02S
$$

NYZ026>034-041>043-087-251800-
NORTH


CITY           SKY/WX    TMP DP  RH WIND       PRES   REMARKS
WATERTOWN      SUNNY     70  59  68 W14G24    29.93F
FORT DRUM      NOT AVBL
OGDENSBURG     FAIR      74  60  61 SW15G22   29.87F
MASSENA        TSTM      64  59  83 N8        29.89F
SARANAC LAKE   MOSUNNY   68  52  56 SW9G17    29.90F
PLATTSBURGH    CLOUDY    70  53  54 SE12      29.86F
$$

NYZ001>004-010>016-019>021-085-251800-
WEST


CITY           SKY/WX    TMP DP  RH WIND       PRES   REMARKS
NIAGARA FALLS  PTSUNNY   73  49  42 W12       29.95F
BUFFALO        MOSUNNY   70  53  54 SW17G36   29.97S
DUNKIRK        CLOUDY    70  49  47 SW12G25   30.00S
JAMESTOWN      CLOUDY    59  48  67 W13G18    30.04F
WELLSVILLE     MOSUNNY   70  48  45 W14G21    30.03F
ROCHESTER      MOSUNNY   74  47  38 W20G25    29.96F
PENN YAN       MOSUNNY   74  45  35 SW9       29.97F
$$

             KEY
       WCI = WIND CHILL INDEX
       VSB = VISIBILITY
       HX  = HEAT INDEX
$$




USA.gov is the U.S. government's official web portal to all federal, state and local government web resources and services.